| time (UTC) | temp C | wind direction | speed KPH | gust KPH | rain 1hr cm | rain 24hr cm | rain mn cm | humidity % | barometer mb |
| 20260503030523 | 13 | 321 | 6.4 | 9.7 | 0.00 | 0.00 | 0.00 | 53 | 1008.3 |
| 20260503025520 | 13 | 318 | 4.8 | 8.0 | 0.00 | 0.00 | 0.00 | 53 | 1008.4 |
| 20260503024517 | 12 | 321 | 8.0 | 12.9 | 0.00 | 0.00 | 0.00 | 61 | 1008.5 |
| 20260503023534 | 13 | 320 | 6.4 | 9.7 | 0.00 | 0.00 | 0.00 | 53 | 1008.5 |
| 20260503022532 | 13 | 317 | 6.4 | 8.0 | 0.00 | 0.00 | 0.00 | 50 | 1008.8 |
| 20260503021550 | 13 | 309 | 4.8 | 8.0 | 0.00 | 0.00 | 0.00 | 52 | 1008.8 |
| 20260503020526 | 13 | 305 | 4.8 | 9.7 | 0.00 | 0.00 | 0.00 | 56 | 1008.7 |
| 20260503015523 | 13 | 318 | 9.7 | 11.3 | 0.00 | 0.00 | 0.00 | 53 | 1008.7 |
| 20260503014520 | 12 | 312 | 8.0 | 11.3 | 0.00 | 0.00 | 0.00 | 57 | 1008.7 |
| 20260503013518 | 13 | 325 | 8.0 | 12.9 | 0.00 | 0.00 | 0.00 | 55 | 1008.8 |
| 20260503012535 | 14 | 315 | 6.4 | 8.0 | 0.00 | 0.00 | 0.00 | 48 | 1008.8 |
| 20260503011533 | 14 | 302 | 4.8 | 8.0 | 0.00 | 0.00 | 0.00 | 47 | 1008.9 |
| 20260503010530 | 14 | 314 | 6.4 | 8.0 | 0.00 | 0.00 | 0.00 | 47 | 1008.9 |
| 20260503005528 | 14 | 322 | 6.4 | 9.7 | 0.00 | 0.00 | 0.00 | 47 | 1008.9 |
| 20260503004523 | 15 | 308 | 4.8 | 8.0 | 0.00 | 0.00 | 0.00 | 44 | 1009.1 |
| 20260503003521 | 15 | 302 | 4.8 | 6.4 | 0.00 | 0.00 | 0.00 | 44 | 1009.1 |
| 20260503002538 | 15 | 298 | 4.8 | 6.4 | 0.00 | 0.00 | 0.00 | 42 | 1009.2 |
| 20260503001516 | 15 | 303 | 4.8 | 8.0 | 0.00 | 0.00 | 0.00 | 42 | 1009.3 |
| 20260503000533 | 15 | 299 | 4.8 | 8.0 | 0.00 | 0.00 | 0.00 | 41 | 1009.3 |
| 20260502235530 | 15 | 275 | 4.8 | 9.7 | 0.00 | 0.00 | 0.00 | 39 | 1009.4 |
| 20260502234527 | 15 | 269 | 4.8 | 9.7 | 0.00 | 0.00 | 0.00 | 39 | 1009.5 |
| 20260502233524 | 15 | 277 | 4.8 | 6.4 | 0.00 | 0.00 | 0.00 | 40 | 1009.5 |
| 20260502232522 | 15 | 290 | 6.4 | 9.7 | 0.00 | 0.00 | 0.00 | 38 | 1009.7 |
| 20260502231519 | 15 | 263 | 4.8 | 9.7 | 0.00 | 0.00 | 0.00 | 39 | 1009.8 |
| 20260502230536 | 16 | 292 | 4.8 | 8.0 | 0.00 | 0.00 | 0.00 | 38 | 1009.9 |
| 20260502225533 | 15 | 299 | 6.4 | 9.7 | 0.00 | 0.00 | 0.00 | 38 | 1009.9 |
| 20260502224550 | 16 | 250 | 6.4 | 11.3 | 0.00 | 0.00 | 0.00 | 38 | 1010.1 |
| 20260502223529 | 16 | 279 | 6.4 | 12.9 | 0.00 | 0.00 | 0.00 | 37 | 1010.4 |
| 20260502222525 | 15 | 257 | 6.4 | 11.3 | 0.00 | 0.00 | 0.00 | 38 | 1010.5 |
| 20260502221542 | 15 | 285 | 8.0 | 14.5 | 0.00 | 0.00 | 0.00 | 37 | 1010.6 |
| 20260502220520 | 15 | 276 | 8.0 | 14.5 | 0.00 | 0.00 | 0.00 | 38 | 1010.7 |
| 20260502215517 | 16 | 306 | 8.0 | 14.5 | 0.00 | 0.00 | 0.00 | 37 | 1010.5 |
| 20260502214534 | 15 | 266 | 4.8 | 11.3 | 0.00 | 0.00 | 0.00 | 37 | 1010.7 |
| 20260502213552 | 15 | 247 | 11.3 | 22.5 | 0.00 | 0.00 | 0.00 | 37 | 1011.0 |
| 20260502212529 | 16 | 297 | 6.4 | 14.5 | 0.00 | 0.00 | 0.00 | 36 | 1011.1 |
| 20260502211527 | 15 | 259 | 9.7 | 19.3 | 0.00 | 0.00 | 0.00 | 36 | 1011.4 |
| 20260502210523 | 15 | 256 | 8.0 | 24.1 | 0.00 | 0.00 | 0.00 | 37 | 1011.4 |
| 20260502205521 | 15 | 312 | 12.9 | 24.1 | 0.00 | 0.00 | 0.00 | 38 | 1011.6 |
| 20260502204539 | 15 | 312 | 12.9 | 22.5 | 0.00 | 0.00 | 0.00 | 38 | 1011.7 |
| 20260502203535 | 15 | 274 | 8.0 | 20.9 | 0.00 | 0.00 | 0.00 | 37 | 1011.5 |
| 20260502202532 | 15 | 310 | 11.3 | 19.3 | 0.00 | 0.00 | 0.00 | 37 | 1011.9 |
| 20260502201530 | 15 | 273 | 8.0 | 17.7 | 0.00 | 0.00 | 0.00 | 37 | 1012.1 |
| 20260502200528 | 15 | 232 | 9.7 | 24.1 | 0.00 | 0.00 | 0.00 | 37 | 1012.2 |
| 20260502195524 | 15 | 286 | 8.0 | 16.1 | 0.00 | 0.00 | 0.00 | 37 | 1012.4 |
| 20260502194521 | 14 | 272 | 8.0 | 17.7 | 0.00 | 0.00 | 0.00 | 37 | 1012.5 |
| 20260502193518 | 14 | 225 | 9.7 | 19.3 | 0.00 | 0.00 | 0.00 | 36 | 1012.8 |
| 20260502192516 | 14 | 272 | 9.7 | 20.9 | 0.00 | 0.00 | 0.00 | 36 | 1012.9 |
| 20260502191533 | 14 | 319 | 11.3 | 20.9 | 0.00 | 0.00 | 0.00 | 37 | 1013.1 |
| 20260502190530 | 14 | 303 | 9.7 | 19.3 | 0.00 | 0.00 | 0.00 | 36 | 1013.2 |
| 20260502185527 | 13 | 272 | 8.0 | 16.1 | 0.00 | 0.00 | 0.00 | 35 | 1013.3 |
| 20260502184525 | 13 | 322 | 16.1 | 25.7 | 0.00 | 0.00 | 0.00 | 36 | 1013.5 |
| 20260502183522 | 13 | 317 | 12.9 | 27.4 | 0.00 | 0.00 | 0.00 | 35 | 1013.7 |
| 20260502182519 | 13 | 304 | 11.3 | 19.3 | 0.00 | 0.00 | 0.00 | 35 | 1013.9 |
| 20260502181536 | 13 | 313 | 12.9 | 19.3 | 0.00 | 0.00 | 0.00 | 35 | 1014.0 |
| 20260502180534 | 13 | 307 | 12.9 | 20.9 | 0.00 | 0.00 | 0.00 | 36 | 1014.2 |
| 20260502170517 | 12 | 253 | 8.0 | 20.9 | 0.00 | 0.00 | 0.00 | 36 | 1014.8 |
| 20260502163529 | 12 | 320 | 14.5 | 19.3 | 0.00 | 0.00 | 0.00 | 37 | 1015.1 |
| 20260502162526 | 12 | 325 | 17.7 | 29.0 | 0.00 | 0.00 | 0.00 | 37 | 1015.3 |
| 20260502161523 | 11 | 327 | 16.1 | 22.5 | 0.00 | 0.00 | 0.00 | 38 | 1015.4 |
| 20260502160520 | 11 | 326 | 14.5 | 27.4 | 0.00 | 0.00 | 0.00 | 37 | 1015.5 |
| 20260502151527 | 11 | 317 | 11.3 | 20.9 | 0.00 | 0.00 | 0.00 | 40 | 1015.7 |
| 20260502150524 | 11 | 319 | 14.5 | 19.3 | 0.00 | 0.00 | 0.00 | 41 | 1015.8 |
| 20260502130530 | 3 | 38 | 4.8 | 6.4 | 0.00 | 0.00 | 0.00 | 79 | 1016.1 |
| 20260502123521 | -1 | 59 | 3.2 | 4.8 | 0.00 | 0.00 | 0.00 | 96 | 1016.3 |
| 20260502122539 | -2 | 58 | 3.2 | 4.8 | 0.00 | 0.00 | 0.00 | 97 | 1016.3 |
| 20260502121516 | -2 | 53 | 3.2 | 4.8 | 0.00 | 0.00 | 0.00 | 97 | 1016.4 |
| 20260502120553 | -3 | 42 | 3.2 | 4.8 | 0.00 | 0.00 | 0.00 | 98 | 1016.3 |
| 20260502115531 | -3 | 41 | 3.2 | 4.8 | 0.00 | 0.00 | 0.00 | 98 | 1016.3 |
| 20260502113545 | -3 | 25 | 3.2 | 4.8 | 0.00 | 0.00 | 0.00 | 98 | 1016.3 |
| 20260502112523 | -3 | 22 | 3.2 | 4.8 | 0.00 | 0.00 | 0.00 | 98 | 1016.3 |
| 20260502111519 | -3 | 28 | 3.2 | 4.8 | 0.00 | 0.00 | 0.00 | 98 | 1016.3 |
| 20260502110517 | -3 | 21 | 3.2 | 4.8 | 0.00 | 0.00 | 0.00 | 98 | 1016.2 |
| 20260502105534 | -3 | 23 | 3.2 | 4.8 | 0.00 | 0.00 | 0.00 | 98 | 1016.2 |
| 20260502104531 | -3 | 21 | 3.2 | 6.4 | 0.00 | 0.00 | 0.00 | 98 | 1016.2 |
| 20260502103528 | -3 | 25 | 3.2 | 4.8 | 0.00 | 0.00 | 0.00 | 97 | 1016.3 |
| 20260502102526 | -3 | 25 | 3.2 | 4.8 | 0.00 | 0.00 | 0.00 | 97 | 1016.3 |
| 20260502101523 | -3 | 27 | 3.2 | 4.8 | 0.00 | 0.00 | 0.00 | 97 | 1016.2 |
| 20260502100520 | -3 | 15 | 4.8 | 4.8 | 0.00 | 0.00 | 0.00 | 97 | 1016.3 |
| 20260502091527 | -2 | 22 | 3.2 | 4.8 | 0.00 | 0.00 | 0.00 | 96 | 1016.3 |
| 20260502090524 | -2 | 44 | 3.2 | 4.8 | 0.00 | 0.00 | 0.00 | 96 | 1016.4 |
| 20260502071533 | -1 | 21 | 3.2 | 4.8 | 0.00 | 0.00 | 0.00 | 93 | 1016.6 |
| 20260502070530 | -1 | 8 | 3.2 | 4.8 | 0.00 | 0.00 | 0.00 | 93 | 1016.8 |
| 20260502064525 | -1 | 13 | 4.8 | 4.8 | 0.00 | 0.00 | 0.00 | 92 | 1017.0 |
| 20260502063523 | -1 | 18 | 3.2 | 4.8 | 0.00 | 0.00 | 0.00 | 92 | 1016.9 |
| 20260502062519 | -1 | 23 | 4.8 | 4.8 | 0.00 | 0.00 | 0.00 | 93 | 1017.0 |
| 20260502061517 | -1 | 11 | 4.8 | 6.4 | 0.00 | 0.00 | 0.00 | 90 | 1017.0 |
| 20260502060534 | 0 | 30 | 3.2 | 4.8 | 0.00 | 0.00 | 0.00 | 91 | 1017.0 |
| 20260502055551 | 0 | 17 | 3.2 | 4.8 | 0.00 | 0.00 | 0.00 | 90 | 1017.1 |
| 20260502054609 | 0 | 37 | 3.2 | 4.8 | 0.00 | 0.00 | 0.00 | 90 | 1017.0 |
| 20260502053525 | 0 | 5 | 4.8 | 6.4 | 0.00 | 0.00 | 0.00 | 89 | 1017.0 |
| 20260502052522 | 0 | 31 | 4.8 | 6.4 | 0.00 | 0.00 | 0.00 | 89 | 1017.1 |
| 20260502051520 | 0 | 11 | 4.8 | 4.8 | 0.00 | 0.00 | 0.00 | 87 | 1016.9 |
| 20260502050517 | 0 | 28 | 3.2 | 4.8 | 0.00 | 0.00 | 0.00 | 86 | 1016.8 |
| 20260502045535 | 0 | 14 | 4.8 | 6.4 | 0.00 | 0.00 | 0.00 | 86 | 1016.9 |
| 20260502044531 | 1 | 12 | 3.2 | 4.8 | 0.00 | 0.00 | 0.00 | 85 | 1017.0 |
| 20260502043529 | 1 | 12 | 3.2 | 4.8 | 0.00 | 0.00 | 0.00 | 82 | 1016.9 |
| 20260502042527 | 1 | 11 | 4.8 | 4.8 | 0.00 | 0.00 | 0.00 | 82 | 1016.9 |
| 20260502041523 | 2 | 9 | 4.8 | 4.8 | 0.00 | 0.00 | 0.00 | 82 | 1016.8 |
| 20260502040541 | 2 | 7 | 3.2 | 4.8 | 0.00 | 0.00 | 0.00 | 79 | 1016.9 |
| 20260502035518 | 2 | 15 | 4.8 | 4.8 | 0.00 | 0.00 | 0.00 | 80 | 1016.9 |
| 20260502034535 | 2 | 5 | 4.8 | 6.4 | 0.00 | 0.00 | 0.00 | 79 | 1016.9 |
| 20260502033532 | 3 | 13 | 3.2 | 4.8 | 0.00 | 0.00 | 0.00 | 81 | 1016.9 |
| 20260502032530 | 3 | 354 | 4.8 | 6.4 | 0.00 | 0.00 | 0.00 | 78 | 1016.8 |
| 20260502031527 | 3 | 7 | 4.8 | 6.4 | 0.00 | 0.00 | 0.00 | 75 | 1016.9 |